Location: Molino di Ancona
(43.6167°N, 13.3667°E)
Time: 05:20:55
(UTC+00:00)

BREEZE-M DEB (TANK) - Pass Details

Date: 15 December 2019
Orbit: 284 x 20933 km, 49.4° (Epoch: 21 January)

Event Time Altitude Azimuth Distance (km) Brightness Sun altitude
Exits shadow 05:17:13 24° 254° (WSW) 690 2.4 -13.1°
Maximum altitude 05:18:00 33° 209° (SSW) 594 2.4 -13.0°
Drops below altitude 10° 05:21:02 10° 141° (SE) 1,857 6.0 -12.4°
Sets 05:24:47 0° 133° (SE) 3,799 8.0 -11.8°
